• In Deutschland
  • Länderverzeichnis
  • Für 7 Tage
  • Wassertemperatur
  • Satellitenkarten
  • Wetterkarte
  • Widgets
  • user-avatar
    Anmelden

    Stündliche Wetter Hobart

    Heute, 16 Juli, Montag

    Zeit Temperatur Niederschläge Wind Luftdruck Luftfeuchtigkeit
    00:00 +5°C° 0 mm 3 m/S 739 mmHg 93%
    01:00 +5°C° 0 mm 3 m/S 739 mmHg 93%
    02:00 +4°C° 0 mm 3 m/S 739 mmHg 93%
    03:00 +4°C° 0 mm 3 m/S 739 mmHg 94%
    04:00 +4°C° 0 mm 2 m/S 739 mmHg 95%
    05:00 +4°C° 0 mm 2 m/S 738 mmHg 95%
    06:00 +4°C° 0 mm 2 m/S 738 mmHg 96%
    07:00 +4°C° 0 mm 2 m/S 738 mmHg 96%
    08:00 +5°C° 0 mm 3 m/S 738 mmHg 89%
    09:00 +8°C° 0 mm 3 m/S 738 mmHg 82%
    10:00 +9°C° 0 mm 3 m/S 738 mmHg 75%
    11:00 +11°C° 0 mm 3 m/S 737 mmHg 68%
    12:00 +12°C° 0 mm 3 m/S 737 mmHg 60%
    13:00 +14°C° 0 mm 4 m/S 736 mmHg 53%
    14:00 +13°C° 0 mm 3 m/S 736 mmHg 57%
    15:00 +13°C° 0 mm 3 m/S 735 mmHg 61%
    16:00 +10°C° 0 mm 5 m/S 735 mmHg 66%
    17:00 +10°C° 0 mm 5 m/S 735 mmHg 70%
    18:00 +10°C° 0 mm 4 m/S 735 mmHg 75%
    19:00 +8°C° 0 mm 4 m/S 735 mmHg 79%
    20:00 +8°C° 0 mm 4 m/S 736 mmHg 82%
    21:00 +8°C° 0 mm 4 m/S 736 mmHg 82%
    22:00 +7°C° 0 mm 4 m/S 736 mmHg 84%
    23:00 +7°C° 0 mm 4 m/S 736 mmHg 84%

    Morgen, 17 Juli, Dienstag

    Zeit Temperatur Niederschläge Wind Luftdruck Luftfeuchtigkeit
    00:00 +7°C° 0 mm 4 m/S 735 mmHg 85%
    01:00 +8°C° 0 mm 4 m/S 735 mmHg 85%
    02:00 +8°C° 0 mm 4 m/S 735 mmHg 85%
    03:00 +8°C° 0 mm 4 m/S 735 mmHg 86%
    04:00 +10°C° 0 mm 4 m/S 735 mmHg 86%
    05:00 +10°C° 0 mm 4 m/S 735 mmHg 84%
    06:00 +10°C° 0 mm 5 m/S 734 mmHg 82%
    07:00 +10°C° 0 mm 5 m/S 734 mmHg 80%
    08:00 +12°C° 0 mm 5 m/S 734 mmHg 74%
    09:00 +13°C° 0 mm 6 m/S 734 mmHg 67%
    10:00 +14°C° 0 mm 7 m/S 734 mmHg 61%
    11:00 +14°C° 0 mm 7 m/S 732 mmHg 57%
    12:00 +13°C° 0 mm 8 m/S 731 mmHg 54%
    13:00 +15°C° 0 mm 8 m/S 730 mmHg 51%
    14:00 +13°C° 0 mm 8 m/S 730 mmHg 52%
    15:00 +13°C° 0 mm 8 m/S 729 mmHg 53%
    16:00 +12°C° 0 mm 8 m/S 729 mmHg 54%
    17:00 +11°C° 0,2 mm 7 m/S 730 mmHg 64%
    18:00 +10°C° 0,2 mm 7 m/S 730 mmHg 73%
    19:00 +8°C° 0,2 mm 6 m/S 731 mmHg 83%
    20:00 +8°C° 0,1 mm 6 m/S 732 mmHg 83%
    21:00 +7°C° 0,1 mm 6 m/S 733 mmHg 83%
    22:00 +5°C° 0,1 mm 6 m/S 734 mmHg 82%
    23:00 +5°C° 0 mm 6 m/S 735 mmHg 81%

    übermorgen, 18 Juli, Mittwoch

    Zeit Temperatur Niederschläge Wind Luftdruck Luftfeuchtigkeit
    00:00 +4°C° 0 mm 6 m/S 736 mmHg 81%
    01:00 +4°C° 0 mm 6 m/S 737 mmHg 80%
    02:00 +4°C° 0 mm 6 m/S 737 mmHg 80%
    03:00 +3°C° 0 mm 6 m/S 738 mmHg 80%
    04:00 +3°C° 0 mm 6 m/S 738 mmHg 81%
    05:00 +3°C° 0 mm 5 m/S 739 mmHg 83%
    06:00 +3°C° 0 mm 5 m/S 739 mmHg 84%
    07:00 +3°C° 0 mm 4 m/S 739 mmHg 86%
    08:00 +5°C° 0 mm 4 m/S 740 mmHg 79%
    09:00 +7°C° 0 mm 5 m/S 740 mmHg 71%
    10:00 +8°C° 0 mm 5 m/S 740 mmHg 64%
    11:00 +9°C° 0 mm 5 m/S 739 mmHg 62%
    12:00 +10°C° 0 mm 6 m/S 739 mmHg 61%
    13:00 +10°C° 0 mm 6 m/S 738 mmHg 59%
    14:00 +11°C° 0 mm 6 m/S 738 mmHg 60%
    15:00 +11°C° 0 mm 6 m/S 737 mmHg 61%
    16:00 +11°C° 0 mm 6 m/S 737 mmHg 62%
    17:00 +11°C° 0,3 mm 6 m/S 736 mmHg 67%
    18:00 +10°C° 0,3 mm 6 m/S 736 mmHg 72%
    19:00 +10°C° 0,3 mm 7 m/S 736 mmHg 76%
    20:00 +10°C° 1,1 mm 6 m/S 736 mmHg 79%
    21:00 +9°C° 1,1 mm 5 m/S 736 mmHg 83%
    22:00 +10°C° 1,1 mm 4 m/S 735 mmHg 86%
    23:00 +9°C° 1,5 mm 5 m/S 735 mmHg 87%

    19 Juli, Donnerstag

    Zeit Temperatur Niederschläge Wind Luftdruck Luftfeuchtigkeit
    00:00 +9°C° 1,5 mm 5 m/S 735 mmHg 88%
    01:00 +9°C° 1,5 mm 6 m/S 734 mmHg 90%
    02:00 +9°C° 0,9 mm 5 m/S 734 mmHg 91%
    03:00 +8°C° 0,9 mm 5 m/S 734 mmHg 92%
    04:00 +8°C° 0,9 mm 4 m/S 734 mmHg 93%
    05:00 +8°C° 0,1 mm 4 m/S 734 mmHg 93%
    06:00 +7°C° 0,1 mm 4 m/S 734 mmHg 93%
    07:00 +7°C° 0,1 mm 4 m/S 734 mmHg 93%
    08:00 +7°C° 0,1 mm 4 m/S 735 mmHg 90%
    09:00 +8°C° 0,1 mm 5 m/S 735 mmHg 87%
    10:00 +8°C° 0,1 mm 5 m/S 735 mmHg 84%
    11:00 +8°C° 0 mm 5 m/S 735 mmHg 80%
    12:00 +8°C° 0 mm 5 m/S 734 mmHg 75%
    13:00 +8°C° 0 mm 5 m/S 734 mmHg 71%
    14:00 +8°C° 0 mm 5 m/S 734 mmHg 71%
    15:00 +7°C° 0 mm 5 m/S 734 mmHg 70%
    16:00 +7°C° 0 mm 5 m/S 734 mmHg 70%
    17:00 +7°C° 0 mm 5 m/S 734 mmHg 73%
    18:00 +6°C° 0 mm 5 m/S 734 mmHg 77%
    19:00 +5°C° 0 mm 5 m/S 735 mmHg 80%
    20:00 +5°C° 0 mm 4 m/S 734 mmHg 80%
    21:00 +5°C° 0 mm 4 m/S 734 mmHg 81%
    22:00 +5°C° 0 mm 4 m/S 734 mmHg 81%
    23:00 +4°C° 0 mm 4 m/S 734 mmHg 81%

    20 Juli, Freitag

    Zeit Temperatur Niederschläge Wind Luftdruck Luftfeuchtigkeit
    00:00 +4°C° 0 mm 4 m/S 733 mmHg 81%
    01:00 +4°C° 0 mm 4 m/S 733 mmHg 81%
    02:00 +4°C° 0 mm 4 m/S 733 mmHg 81%
    03:00 +4°C° 0 mm 4 m/S 732 mmHg 81%
    04:00 +3°C° 0 mm 4 m/S 732 mmHg 81%
    05:00 +2°C° 0 mm 5 m/S 732 mmHg 80%
    06:00 +2°C° 0 mm 5 m/S 732 mmHg 78%
    07:00 +2°C° 0 mm 6 m/S 732 mmHg 76%
    08:00 +3°C° 0 mm 6 m/S 731 mmHg 74%
    09:00 +5°C° 0 mm 6 m/S 731 mmHg 71%
    10:00 +7°C° 0 mm 6 m/S 731 mmHg 68%
    11:00 +6°C° 0,2 mm 7 m/S 732 mmHg 66%
    12:00 +6°C° 0,2 mm 7 m/S 732 mmHg 65%
    13:00 +6°C° 0,2 mm 7 m/S 732 mmHg 64%
    14:00 +6°C° 0,1 mm 7 m/S 732 mmHg 65%
    15:00 +5°C° 0,1 mm 8 m/S 733 mmHg 66%
    16:00 +5°C° 0,1 mm 8 m/S 734 mmHg 67%
    17:00 +4°C° 0,1 mm 8 m/S 734 mmHg 71%
    18:00 +3°C° 0,1 mm 7 m/S 735 mmHg 76%
    19:00 +3°C° 0,1 mm 7 m/S 736 mmHg 80%
    20:00 +3°C° 0,1 mm 7 m/S 737 mmHg 80%
    21:00 +3°C° 0,1 mm 7 m/S 737 mmHg 80%
    22:00 +3°C° 0,1 mm 7 m/S 738 mmHg 81%
    23:00 +3°C° 0,1 mm 7 m/S 738 mmHg 81%

    21 Juli, Samstag

    Zeit Temperatur Niederschläge Wind Luftdruck Luftfeuchtigkeit
    00:00 +3°C° 0,1 mm 7 m/S 738 mmHg 81%
    01:00 +3°C° 0,1 mm 7 m/S 739 mmHg 81%
    02:00 +2°C° 0 mm 7 m/S 739 mmHg 83%
    03:00 +2°C° 0 mm 6 m/S 739 mmHg 84%
    04:00 +2°C° 0 mm 6 m/S 740 mmHg 85%
    05:00 +2°C° 0 mm 6 m/S 740 mmHg 85%
    06:00 +2°C° 0 mm 6 m/S 741 mmHg 85%
    07:00 +3°C° 0 mm 6 m/S 741 mmHg 85%
    08:00 +4°C° 0 mm 6 m/S 742 mmHg 81%
    09:00 +5°C° 0 mm 6 m/S 742 mmHg 78%
    10:00 +7°C° 0 mm 6 m/S 742 mmHg 74%
    11:00 +7°C° 0,1 mm 6 m/S 742 mmHg 72%
    12:00 +8°C° 0,1 mm 6 m/S 742 mmHg 70%
    13:00 +8°C° 0,1 mm 6 m/S 742 mmHg 68%
    14:00 +8°C° 0,1 mm 6 m/S 742 mmHg 72%
    15:00 +7°C° 0,1 mm 5 m/S 742 mmHg 76%
    16:00 +7°C° 0,1 mm 5 m/S 742 mmHg 79%
    17:00 +7°C° 0,1 mm 4 m/S 743 mmHg 83%
    18:00 +6°C° 0,1 mm 4 m/S 743 mmHg 87%
    19:00 +7°C° 0,1 mm 3 m/S 744 mmHg 90%
    20:00 +7°C° 0 mm 3 m/S 744 mmHg 90%
    21:00 +7°C° 0 mm 3 m/S 744 mmHg 90%
    22:00 +7°C° 0 mm 3 m/S 744 mmHg 91%
    23:00 +7°C° 0,1 mm 3 m/S 744 mmHg 91%
    Mehr zeigen